Location: Derby
(52.9213°N, 1.4761°W)
Time: 01:30:50
(UTC+01:00)

Vanguard 2 Rocket - Pass Details

Date: 25 May 2025
Orbit: 554 x 3293 km, 32.9° (Epoch: 12 June)

Event Time Altitude Azimuth Distance (km) Brightness Sun altitude
Rises 03:03:26 0° 264° (W) 6,796 11.0 -11.6°
Reaches altitude 10° 03:09:51 10° 252° (WSW) 5,352 10.4 -11.1°
Maximum altitude 03:19:33 21° 212° (SSW) 3,647 9.3 -10.4°
Drops below altitude 10° 03:26:34 10° 168° (SSE) 3,726 9.6 -9.8°
Sets 03:30:01 0° 152° (SSE) 4,303 10.1 -9.5°
